Flag for U.S.A. Weather past 2 weeks in Metlakatla, Alaska, U.S.A.

Now
48 °F

Clear.


Feels Like: 47 °F
Forecast: 49 / 58 °F
Wind: 3 mph from Northeast

Location: Metlakatla - Metlakatla Seaplane Base

Current Time: Sep 23, 2014 at 1:16:40 AM

Latest Report: Sep 23, 2014 at 12:36 AM


Visibility: 10 mi

Pressure: 29.90 "Hg

Humidity: 94%

Dew point: 46 °F

Location of MetlakatlaLocation

Historic Weather in Metlakatla — Graph

°F

Metlakatla temperature yesterday

Maximum temperature yesterday: 63 °F (at 3:36 PM)
Minimum temperature yesterday: 48 °F (at 10:56 PM)
Average temperature yesterday: 54 °F

Past Weeks' High & Low Weather Summary

 TemperatureHumidityPressure
High66 °F (Sep 21, 8:36 AM)100% (Sep 15, 9:36 AM)30.36 "Hg (Sep 15, 9:36 AM)
Low48 °F (Sep 12, 2:16 AM)34% (Sep 10, 9:36 AM)29.39 "Hg (Sep 18, 2:56 PM)
Average56 °F83%29.96 "Hg
* Reported Sep 8 12:36 AM — Sep 23 12:16 AM, Metlakatla, Weather by CustomWeather, © 2014

Note: Actual official high and low records may vary slightly from our data, if they occured in-between our weather recording intervals... More about our weather records

Advertising

Metlakatla weather history for previous 24 hours

 ConditionsComfort  
Time TempWeatherWind HumidityBarometerVisibility
12:16 AM
Sep 23
50 °FClear.3 mph94%29.90 "Hg10 mi
11:56 PM
Sep 22
48 °FClear.3 mph94%29.90 "Hg10 mi
11:36 PM50 °FClear.No wind94%29.91 "Hg10 mi
11:16 PM48 °FClear.3 mph94%29.91 "Hg9 mi
10:56 PM48 °FClear.3 mph94%29.91 "Hg10 mi
10:36 PM50 °FClear.3 mph88%29.92 "Hg10 mi
9:56 PM52 °FClear.No wind88%29.92 "Hg10 mi
9:36 PM52 °FPassing clouds.No wind88%29.92 "Hg8 mi
8:56 PM52 °FClear.No wind88%29.91 "Hg9 mi
8:36 PM52 °FClear.No wind94%29.92 "Hg10 mi
8:16 PM52 °FClear.No wind94%29.92 "Hg10 mi
7:56 PM54 °FClear.No wind94%29.92 "Hg10 mi
7:36 PM54 °FSunny.No wind94%29.92 "Hg10 mi
7:16 PM54 °FSunny.No wind94%29.92 "Hg10 mi
6:56 PM54 °FPassing clouds.No wind94%29.92 "Hg10 mi
6:36 PM54 °FPartly sunny.No wind94%29.92 "Hg9 mi
6:16 PM54 °FScattered clouds.No wind94%29.92 "Hg8 mi
5:56 PM54 °FSunny.3 mph94%29.92 "Hg9 mi
5:36 PM55 °FSunny.3 mph88%29.93 "Hg10 mi
5:16 PM55 °FSunny.7 mph88%29.93 "Hg10 mi
4:56 PM61 °FSunny.No wind68%29.93 "Hg10 mi
4:36 PM61 °FSunny.5 mph63%29.93 "Hg10 mi
4:16 PM61 °FSunny.3 mph72%29.93 "Hg10 mi
3:36 PM63 °FSunny.3 mph68%29.93 "Hg10 mi
3:16 PM61 °FSunny.5 mph68%29.92 "Hg10 mi
2:56 PM61 °FSunny.7 mph68%29.93 "Hg10 mi
2:36 PM61 °FPassing clouds.6 mph72%29.93 "Hg10 mi
2:16 PM61 °FScattered clouds.3 mph72%29.92 "Hg10 mi
1:56 PM61 °FPartly sunny.7 mph77%29.93 "Hg10 mi
1:36 PM61 °FPartly sunny.7 mph72%29.93 "Hg10 mi
1:16 PM61 °FScattered clouds.7 mph72%29.93 "Hg10 mi
12:56 PM61 °FBroken clouds.7 mph77%29.93 "Hg10 mi
12:36 PM61 °FScattered clouds.7 mph77%29.92 "Hg10 mi
12:16 PM61 °FScattered clouds.6 mph72%29.92 "Hg10 mi
11:56 AM59 °FPassing clouds.6 mph77%29.91 "Hg10 mi
11:36 AM57 °FScattered clouds.7 mph82%29.91 "Hg10 mi
11:16 AM57 °FPartly sunny.5 mph88%29.90 "Hg10 mi
10:56 AM55 °FCloudy.No wind88%29.91 "Hg10 mi
10:36 AM55 °FMore clouds than sun.6 mph88%29.91 "Hg10 mi
9:56 AM54 °FOvercast.No wind94%29.90 "Hg10 mi
9:36 AM54 °FPartly sunny.No wind94%29.90 "Hg10 mi
9:16 AM54 °FBroken clouds.No wind94%29.89 "Hg10 mi
8:56 AM54 °FCloudy.No wind94%29.89 "Hg10 mi
8:36 AM54 °FCloudy.3 mph94%29.88 "Hg10 mi
8:16 AM52 °FCloudy.3 mph94%29.88 "Hg10 mi
7:56 AM52 °FMostly cloudy.No wind94%29.88 "Hg10 mi
7:36 AM52 °FCloudy.3 mph88%29.87 "Hg10 mi
7:16 AM52 °FMostly cloudy.No wind88%29.87 "Hg10 mi
6:56 AM52 °FMostly cloudy.3 mph88%29.87 "Hg10 mi
6:36 AM52 °FMostly cloudy.No wind88%29.87 "Hg10 mi
6:16 AM52 °FPartly cloudy.No wind88%29.86 "Hg10 mi
5:56 AM52 °FPassing clouds.No wind88%29.85 "Hg10 mi
5:36 AM52 °FOvercast.No wind88%29.85 "Hg10 mi
5:16 AM52 °FPassing clouds.No wind88%29.85 "Hg10 mi
4:36 AM52 °FPassing clouds.No wind88%29.84 "Hg10 mi
4:16 AM52 °FMostly cloudy.3 mph88%29.84 "Hg10 mi
3:56 AM52 °FPassing clouds.No wind88%29.84 "Hg10 mi
3:36 AM52 °FPassing clouds.No wind88%29.84 "Hg10 mi
3:16 AM52 °FPassing clouds.3 mph88%29.84 "Hg10 mi
2:56 AM52 °FPassing clouds.3 mph88%29.84 "Hg10 mi
2:36 AM52 °FPassing clouds.5 mph88%29.83 "Hg10 mi
2:16 AM52 °FPassing clouds.3 mph88%29.82 "Hg10 mi
1:56 AM52 °FPassing clouds.5 mph88%29.82 "Hg10 mi
1:36 AM52 °FClear.5 mph88%29.81 "Hg10 mi
1:16 AM52 °FClear.3 mph88%29.81 "Hg10 mi
Weather by CustomWeather, © 2014

See weather overviewHow to use our weather pages